[[{"header":{"parameterUnit":"m.s-1","parameterCategory":1,"la1":30.2991,"la2":30.254,"lo1":-89.0895,"lo2":-89.0444,"dy":0.0017,"dx":0.0017,"nx":28,"ny":28,"refTime":"2023-11-14T03:00:00:Z","depth":0,"parameterNumber":2,"parameterNumberName":"U-component_of_WINDS"},"data":[0,0,0,0,0,0,0,0,0,0,0,0,0,0,0,0,0,0,0,0,0,0,0,0,0,0,0,0,0,0,0,0,0,0,0,0,0,0,0,0,0,0,0,0,0,0,0,0,0,0,0,0,0,0,0,0,0,0,-6.721,-6.7211,0,-6.7355,-6.7357,-6.7358,-6.7211,-6.7206,-6.72,-6.7194,-6.7347,-6.7356,-6.7366,0,0,0,0,0,0,0,0,0,0,0,0,0,-6.6809,-6.6817,-6.7209,-6.7211,-6.7213,-6.7355,-6.7357,-6.7359,-6.7212,-6.7205,-6.7198,-6.7192,-6.7344,-6.7355,-6.7366,0,0,0,0,0,0,0,0,0,0,0,0,0,-6.6972,-6.682,-6.7209,-6.7157,-6.7154,-6.7354,-6.7357,-6.7359,-6.7214,-6.7205,-6.7197,-6.7189,-6.734,-6.7354,-6.7368,-6.7628,0,0,-6.7411,-6.7417,0,0,0,0,0,0,0,0,-6.6963,-6.6987,-6.7163,-6.7161,-6.7158,-6.7256,-6.7271,-6.745,-6.7216,-6.7191,-6.7194,-6.7184,-6.7324,-6.7339,-6.7385,-6.7635,-6.7642,-6.7412,-6.7421,-6.7427,-6.7431,0,0,0,0,0,0,0,-6.6952,-6.698,-6.7267,-6.7166,-6.7163,-6.7128,-6.7141,-6.7304,-6.7304,-6.7193,-6.7182,-6.7201,-6.7321,-6.7372,-6.7388,-6.7644,-6.7412,-6.7425,-6.7433,-6.7439,-6.8118,-6.8127,0,0,0,0,0,0,-6.6946,-6.6971,-6.7262,-6.7271,-6.7037,-6.7142,-6.7157,-6.7233,-6.7302,-6.7304,-6.7209,-6.7194,-6.7352,-6.7372,-6.7393,-6.7704,-6.7427,-6.744,-6.7448,-6.8109,-6.812,-6.8131,0,0,0,0,0,0,-6.6938,-6.6973,-6.7256,-6.7119,-6.7152,-6.7158,-6.7245,-6.7241,-6.7291,-6.7314,-6.7314,-6.7261,-6.7346,-6.7373,-6.7571,-6.7708,-6.7447,-6.746,-6.8098,-6.8112,-6.8126,-6.8329,0,0,0,0,0,0,-6.6927,-6.6971,-6.7069,-6.7122,-6.716,-6.7432,-6.7253,-6.725,-6.7316,-6.7298,-6.7363,-6.7365,-6.7341,-6.7551,-6.7585,-6.7722,-6.7471,-6.8085,-6.8104,-6.8121,-6.831,-6.8348,-6.8381,0,0,0,0,0,-6.6913,-6.712,-6.7074,-6.711,-6.7282,-6.744,-6.7462,-6.7429,-6.7327,-6.7427,-6.7442,-6.7363,-6.7687,-6.7572,-6.761,-6.7753,-6.8077,-6.8099,-6.812,-6.8294,-6.8341,-6.838,0,0,0,0,0,0,-6.7084,-6.7126,-6.7076,-6.7306,-6.7371,-6.7415,-6.7539,-6.7479,-6.7574,-6.7554,-6.751,-6.7526,-6.7737,-6.7764,-6.7636,-6.801,-6.7865,-6.7896,-6.7985,-6.803,-6.8065,-6.8055,-6.7482,0,0,0,0,0,-6.7148,-6.7271,-6.7302,-6.7502,-6.7537,-6.7533,-6.7601,-6.757,-6.7635,-6.7662,-6.7691,-6.7759,-6.7876,-6.7954,-6.8062,-6.8312,-6.8326,-6.843,-6.8465,-6.8494,-6.8522,-6.866,-6.8707,-6.8201,-6.8201,-6.8201,0,0,-6.7282,-6.7321,-6.7401,-6.7538,-6.7584,-6.7715,-6.7557,-6.7701,-6.7799,-6.7684,-6.7874,-6.7898,-6.7971,-6.8197,-6.8298,-6.8227,-6.8664,-6.8522,-6.8545,-6.8557,-6.8687,-6.8735,-6.8777,-6.8216,-6.8213,-6.8211,0,0,-6.7595,-6.7635,-6.7808,-6.7858,-6.793,-6.7926,-6.7968,-6.8022,-6.8033,-6.8222,-6.814,-6.8256,-6.8457,-6.8513,-6.8568,-6.8905,-6.8837,-6.8941,-6.9128,-6.9263,-6.9303,-6.9338,-6.9461,-6.9506,-6.8968,-6.8968,-6.8969,0,-6.7753,-6.7946,-6.7904,-6.8056,-6.812,-6.8021,-6.8198,-6.8248,-6.8353,-6.84,-6.8317,-6.857,-6.8611,-6.8851,-6.8934,-6.898,-6.9029,-6.8935,-6.93,-6.9335,-6.9367,-6.9484,-6.9531,-6.8981,-6.8979,-6.8978,-6.8977,0,-6.8139,-6.8274,-6.8405,-6.8508,-6.8586,-6.8749,-6.8735,-6.8819,-6.8782,-6.8788,-6.8984,-6.903,-6.9148,-6.9202,-6.9167,-6.9439,-6.9392,-6.9306,-6.916,-6.9429,-6.9538,-6.9582,-6.8998,-6.8994,-6.899,-6.8987,0,0,-6.8563,-6.8643,-6.8692,-6.8739,-6.8812,-6.8916,-6.9076,-6.919,-6.9265,-6.9341,-6.9475,-6.9649,-6.957,-6.9633,-6.9603,-6.9722,-6.9989,-6.9621,-6.9622,-6.9691,-7.0295,-7.0362,-7.0415,-6.9944,-6.9952,-6.9959,-7.029,0,-6.888,-6.9156,-6.9125,-6.939,-6.9516,-6.9425,-6.9564,-6.9625,-6.9635,-6.9745,-6.9755,-6.9881,-6.9765,-6.9803,-6.9916,-6.9933,-7.0111,-6.9908,-7.0072,-7.0078,-7.006,-7.0471,-7.0542,-7.0852,-7.0332,-7.034,-7.0345,0,-6.9287,-6.9377,-6.9655,-6.9711,-6.9762,-6.9888,-6.9992,-7.0097,-7.0166,-7.0164,-7.0236,-7.0186,-7.0349,-7.0198,-7.0424,-7.0287,-7.0352,-7.0371,-7.0382,-7.0398,-7.023,-7.0502,-7.095,-7.0998,-7.0411,-7.0406,-7.0401,0,-6.9573,-6.9764,-6.9955,-6.9998,-7.0067,-7.0158,-7.0192,-7.0251,-7.0323,-7.0414,-7.0461,-7.057,-7.0631,-7.0718,-7.07,-7.0591,-7.0932,-7.0778,-7.0938,-7.094,-7.1016,-7.1012,-7.1485,-7.1054,-7.1053,-7.1052,-7.1051,0,-6.9932,-7.0106,-7.0085,-7.0203,-7.0397,-7.0359,-7.0552,-7.0574,-7.0629,-7.0751,-7.0678,-7.0795,-7.0763,-7.0879,-7.0866,-7.1057,-7.1084,-7.109,-7.1086,-7.1099,-7.1099,-7.1143,-7.1122,-7.1064,-7.1062,-7.1059,-7.1057,0,-7.0285,-7.0278,-7.0481,-7.053,-7.0547,-7.0687,-7.073,-7.0843,-7.0846,-7.1003,-7.1037,-7.1045,-7.1178,-7.1168,-7.1318,-7.131,-7.1547,-7.1515,-7.1524,-7.1518,-7.168,-7.1667,-7.22,-7.227,-7.1791,-7.1795,-7.1799,0,-7.0516,-7.0648,-7.0712,-7.0788,-7.0828,-7.0952,-7.1025,-7.0994,-7.1073,-7.1162,-7.1265,-7.1392,-7.1491,-7.1709,-7.1729,-7.1844,-7.1817,-7.1996,-7.1834,-7.1844,-7.1824,-7.1817,-7.1832,-7.2029,-7.2034,-7.2039,-7.2042,0,-7.0928,-7.0918,-7.1026,-7.1134,-7.1223,-7.1307,-7.1383,-7.145,-7.1427,-7.152,-7.1655,-7.1733,-7.1887,-7.2015,-7.2125,-7.216,-7.2101,-7.2093,-7.2136,-7.2153,-7.2154,-7.2159,-7.1615,-7.2081,-7.2077,-7.2074,-7.2072,-7.2071,-7.1229,-7.1343,-7.1407,-7.153,-7.1584,-7.1657,-7.1767,-7.1784,-7.1896,-7.2019,-7.1993,-7.2147,-7.2214,-7.2356,-7.2403,-7.2523,-7.2459,-7.2522,-7.2538,-7.2555,-7.2576,-7.2133,-7.2543,-7.2542,-7.2541,-7.254,-7.2539,0,-7.164,-7.1677,-7.179,-7.1899,-7.1998,-7.1929,-7.201,-7.2098,-7.2233,-7.23,-7.24,-7.2557,-7.2681,-7.2712,-7.2831,-7.2923,-7.2898,-7.2955,-7.295,-7.296,-7.2624,-7.2576,-7.2974,-7.2973,-7.2973,-7.2973,-7.2973,-7.2973,-7.1866,-7.2057,-7.2055,-7.2273,-7.2308,-7.2457,-7.251,-7.2578,-7.2632,-7.2811,-7.2913,-7.2931,-7.2985,-7.3108,-7.322,-7.3226,-7.3275,-7.3345,-7.334,-7.3027,-7.2983,-7.2942,-7.2896,-7.3355,-7.3356,-7.3666,-7.3669,-7.3671]},{"header":{"parameterUnit":"m.s-1","parameterCategory":1,"la1":30.2991,"la2":30.254,"lo1":-89.0895,"lo2":-89.0444,"dy":0.0017,"dx":0.0017,"nx":28,"ny":28,"refTime":"2023-11-14T03:00:00:Z","depth":0,"parameterNumber":3,"parameterNumberName":"V-component_of_WINDS"},"data":[0,0,0,0,0,0,0,0,0,0,0,0,0,0,0,0,0,0,0,0,0,0,0,0,0,0,0,0,0,0,0,0,0,0,0,0,0,0,0,0,0,0,0,0,0,0,0,0,0,0,0,0,0,0,0,0,0,0,-4.2076,-4.2076,0,-4.2053,-4.2052,-4.2052,-4.1948,-4.1946,-4.1943,-4.1941,-4.1919,-4.192,-4.1922,0,0,0,0,0,0,0,0,0,0,0,0,0,-4.2032,-4.2034,-4.2076,-4.2076,-4.2075,-4.2053,-4.2052,-4.2052,-4.1949,-4.1946,-4.1943,-4.194,-4.1918,-4.192,-4.1922,0,0,0,0,0,0,0,0,0,0,0,0,0,-4.2034,-4.2034,-4.2076,-4.2021,-4.2016,-4.2053,-4.2052,-4.2052,-4.1949,-4.1946,-4.1942,-4.1939,-4.1918,-4.192,-4.1922,-4.2011,0,0,-4.193,-4.1931,0,0,0,0,0,0,0,0,-4.2034,-4.2036,-4.2029,-4.2025,-4.2019,-4.1999,-4.2028,-4.2038,-4.195,-4.1975,-4.1941,-4.1937,-4.1949,-4.1948,-4.1952,-4.201,-4.2009,-4.193,-4.1932,-4.1933,-4.1934,0,0,0,0,0,0,0,-4.2034,-4.2037,-4.2067,-4.203,-4.2023,-4.1998,-4.1994,-4.203,-4.1982,-4.1972,-4.1965,-4.1963,-4.1945,-4.195,-4.1951,-4.2008,-4.193,-4.1932,-4.1934,-4.1935,-4.2137,-4.2141,0,0,0,0,0,0,-4.2042,-4.2037,-4.2067,-4.2066,-4.2018,-4.2002,-4.1997,-4.201,-4.1982,-4.1974,-4.1966,-4.1958,-4.1947,-4.1948,-4.195,-4.2051,-4.1933,-4.1935,-4.1937,-4.2133,-4.2138,-4.2142,0,0,0,0,0,0,-4.2041,-4.2046,-4.2068,-4.2049,-4.205,-4.2006,-4.2021,-4.2011,-4.2016,-4.1977,-4.1968,-4.198,-4.1945,-4.1946,-4.1996,-4.2049,-4.1936,-4.1939,-4.2129,-4.2135,-4.214,-4.2255,0,0,0,0,0,0,-4.204,-4.2046,-4.2079,-4.2051,-4.2052,-4.2116,-4.2024,-4.2013,-4.202,-4.2009,-4.1988,-4.198,-4.1942,-4.1993,-4.1999,-4.205,-4.1941,-4.2124,-4.2131,-4.2138,-4.2247,-4.2264,-4.2279,0,0,0,0,0,-4.2039,-4.2113,-4.2081,-4.2085,-4.2092,-4.2119,-4.2119,-4.2073,-4.2025,-4.2058,-4.2033,-4.1981,-4.2042,-4.1999,-4.2004,-4.2058,-4.212,-4.2129,-4.2138,-4.2239,-4.2261,-4.2279,0,0,0,0,0,0,-4.2149,-4.2108,-4.2073,-4.2139,-4.2133,-4.2101,-4.2141,-4.2097,-4.2105,-4.2095,-4.2037,-4.2033,-4.2092,-4.208,-4.2032,-4.2142,-4.2072,-4.2083,-4.2148,-4.2168,-4.2184,-4.2186,-4.1943,0,0,0,0,0,-4.2181,-4.2205,-4.2168,-4.2231,-4.223,-4.2186,-4.2196,-4.2161,-4.2152,-4.2149,-4.2128,-4.2123,-4.214,-4.2153,-4.2167,-4.2244,-4.2238,-4.2283,-4.23,-4.2313,-4.2323,-4.2363,-4.2383,-4.2171,-4.2171,-4.217,0,0,-4.2247,-4.2228,-4.2247,-4.2252,-4.2244,-4.2271,-4.2185,-4.2217,-4.2237,-4.2154,-4.22,-4.2185,-4.2174,-4.2238,-4.2265,-4.223,-4.238,-4.2324,-4.2336,-4.2338,-4.2374,-4.2394,-4.2412,-4.2177,-4.2176,-4.2175,0,0,-4.2382,-4.237,-4.242,-4.2413,-4.24,-4.237,-4.2383,-4.2357,-4.2344,-4.2388,-4.2327,-4.235,-4.2381,-4.2377,-4.2378,-4.2511,-4.2464,-4.2517,-4.2603,-4.2642,-4.2659,-4.2674,-4.2721,-4.2739,-4.2526,-4.2527,-4.2527,0,-4.2466,-4.2504,-4.2452,-4.2488,-4.2492,-4.2418,-4.2469,-4.2464,-4.2457,-4.2462,-4.2422,-4.246,-4.2448,-4.251,-4.2542,-4.2545,-4.2558,-4.2519,-4.2661,-4.2675,-4.2688,-4.2733,-4.2751,-4.2533,-4.2533,-4.2532,-4.2531,0,-4.2608,-4.2636,-4.2678,-4.2672,-4.2681,-4.2725,-4.2679,-4.2695,-4.2658,-4.2633,-4.268,-4.2663,-4.2672,-4.2684,-4.2649,-4.2741,-4.2719,-4.2671,-4.26,-4.2715,-4.2757,-4.2773,-4.2543,-4.254,-4.2538,-4.2537,0,0,-4.2813,-4.2777,-4.2793,-4.279,-4.277,-4.279,-4.283,-4.2838,-4.2853,-4.285,-4.2883,-4.2911,-4.2866,-4.2868,-4.2832,-4.2867,-4.2973,-4.2814,-4.2813,-4.2845,-4.3073,-4.311,-4.3131,-4.2941,-4.2944,-4.2946,-4.3074,0,-4.2942,-4.3008,-4.2961,-4.3035,-4.306,-4.2989,-4.3024,-4.3016,-4.2993,-4.3011,-4.2986,-4.3007,-4.2946,-4.2947,-4.2978,-4.2953,-4.3018,-4.2943,-4.2971,-4.2973,-4.2977,-4.3152,-4.3192,-4.3313,-4.309,-4.3093,-4.3095,0,-4.3101,-4.3105,-4.3182,-4.3156,-4.3164,-4.3197,-4.32,-4.3218,-4.3207,-4.3188,-4.3191,-4.3145,-4.3183,-4.3113,-4.3165,-4.3115,-4.3124,-4.3113,-4.3117,-4.3119,-4.3042,-4.316,-4.3351,-4.337,-4.3119,-4.3117,-4.3116,0,-4.3244,-4.3268,-4.3316,-4.3315,-4.3287,-4.3311,-4.33,-4.3286,-4.3294,-4.3297,-4.3301,-4.331,-4.3315,-4.3322,-4.328,-4.3233,-4.3338,-4.3264,-4.3324,-4.3325,-4.335,-4.3349,-4.3546,-4.3354,-4.3354,-4.3354,-4.3353,0,-4.3393,-4.3443,-4.338,-4.341,-4.3463,-4.3409,-4.3464,-4.3446,-4.3433,-4.3459,-4.3398,-4.3424,-4.3366,-4.3386,-4.3354,-4.3402,-4.3404,-4.3391,-4.3382,-4.3397,-4.3399,-4.3402,-4.3393,-4.3359,-4.3358,-4.3357,-4.3356,0,-4.3561,-4.3521,-4.3569,-4.3538,-4.3531,-4.3572,-4.3545,-4.3572,-4.3545,-4.3578,-4.3583,-4.3541,-4.3561,-4.3519,-4.3534,-4.3512,-4.358,-4.3558,-4.3584,-4.3578,-4.364,-4.3635,-4.3847,-4.3873,-4.3664,-4.3666,-4.3668,0,-4.366,-4.3696,-4.3668,-4.3681,-4.3673,-4.3694,-4.3701,-4.3649,-4.366,-4.365,-4.3678,-4.3693,-4.3702,-4.3738,-4.3709,-4.372,-4.3697,-4.3771,-4.3699,-4.3713,-4.3699,-4.3698,-4.3702,-4.3786,-4.3789,-4.3791,-4.3792,0,-4.3839,-4.3817,-4.383,-4.3836,-4.3846,-4.3848,-4.3846,-4.386,-4.3805,-4.382,-4.3839,-4.3846,-4.386,-4.3876,-4.388,-4.387,-4.3823,-4.3815,-4.383,-4.3846,-4.386,-4.3854,-4.3626,-4.3811,-4.3809,-4.3808,-4.3807,-4.3806,-4.3976,-4.4005,-4.3989,-4.4006,-4.3998,-4.3998,-4.4021,-4.3997,-4.4011,-4.4019,-4.3987,-4.4014,-4.4002,-4.4002,-4.3996,-4.4017,-4.3984,-4.4005,-4.401,-4.4017,-4.4027,-4.3856,-4.4017,-4.4017,-4.4016,-4.4016,-4.4015,0,-4.4153,-4.4139,-4.4154,-4.4153,-4.4165,-4.4118,-4.4114,-4.4128,-4.4152,-4.4144,-4.4154,-4.4176,-4.4191,-4.4163,-4.4174,-4.4195,-4.4174,-4.42,-4.4199,-4.4197,-4.4056,-4.4042,-4.4217,-4.4217,-4.4217,-4.4217,-4.4217,-4.4217,-4.4246,-4.4293,-4.4269,-4.4311,-4.4297,-4.4322,-4.4323,-4.4322,-4.4316,-4.4343,-4.4355,-4.4336,-4.4321,-4.4329,-4.4341,-4.4332,-4.434,-4.4373,-4.4358,-4.4227,-4.4207,-4.4188,-4.4175,-4.4375,-4.4375,-4.4497,-4.4498,-4.4499]}]]